When you browse on this site, cookies collect data to enhance your experience and personalize the content and advertising you see.
Visit our Privacy Policy to learn more. By continuing to use the site, you agree to this use of cookies and data.

Hourly Weather Burdin

Today, 4 July, Saturday

Time Temperature Precipitation Wind Pressure Humidity
00:00 +22°C° 0 mm 1 mps 753 mmHg 71%
01:00 +22°C° 0 mm 1 mps 753 mmHg 72%
02:00 +21°C° 0 mm 1 mps 753 mmHg 73%
03:00 +21°C° 0 mm 1 mps 753 mmHg 74%
04:00 +22°C° 0 mm 1 mps 753 mmHg 73%
05:00 +23°C° 0 mm 1 mps 753 mmHg 72%
06:00 +24°C° 0 mm 1 mps 753 mmHg 71%
07:00 +25°C° 0 mm 1 mps 753 mmHg 66%
08:00 +27°C° 0 mm 1 mps 753 mmHg 61%
09:00 +29°C° 0 mm 2 mps 753 mmHg 56%
10:00 +30°C° 0 mm 2 mps 753 mmHg 53%
11:00 +31°C° 0 mm 2 mps 753 mmHg 49%
12:00 +32°C° 0 mm 2 mps 752 mmHg 46%
13:00 +34°C° 0 mm 3 mps 752 mmHg 45%
14:00 +34°C° 0 mm 3 mps 752 mmHg 45%
15:00 +34°C° 0 mm 3 mps 752 mmHg 45%
16:00 +34°C° 0 mm 3 mps 751 mmHg 48%
17:00 +32°C° 0 mm 2 mps 751 mmHg 51%
18:00 +32°C° 0 mm 1 mps 751 mmHg 54%
19:00 +30°C° 0 mm 1 mps 751 mmHg 58%
20:00 +28°C° 0 mm 1 mps 751 mmHg 61%
21:00 +24°C° 0 mm 0 mps 751 mmHg 64%
22:00 +23°C° 0 mm 0 mps 751 mmHg 65%
23:00 +25°C° 0 mm 1 mps 751 mmHg 67%

Tomorrow, 5 July, Sunday

Time Temperature Precipitation Wind Pressure Humidity
00:00 +24°C° 0 mm 1 mps 751 mmHg 68%
01:00 +24°C° 0 mm 1 mps 751 mmHg 69%
02:00 +23°C° 0 mm 1 mps 751 mmHg 70%
03:00 +23°C° 0 mm 1 mps 750 mmHg 70%
04:00 +24°C° 0 mm 1 mps 751 mmHg 68%
05:00 +23°C° 0 mm 0 mps 751 mmHg 65%
06:00 +24°C° 0 mm 0 mps 751 mmHg 63%
07:00 +27°C° 0 mm 1 mps 750 mmHg 58%
08:00 +29°C° 0 mm 1 mps 750 mmHg 53%
09:00 +31°C° 0 mm 2 mps 750 mmHg 49%
10:00 +32°C° 0 mm 2 mps 750 mmHg 45%
11:00 +34°C° 0 mm 2 mps 750 mmHg 42%
12:00 +35°C° 0 mm 3 mps 750 mmHg 38%
13:00 +35°C° 0 mm 3 mps 750 mmHg 36%
14:00 +35°C° 0 mm 3 mps 749 mmHg 34%
15:00 +36°C° 0 mm 3 mps 749 mmHg 32%
16:00 +35°C° 0 mm 3 mps 749 mmHg 37%
17:00 +34°C° 0 mm 2 mps 749 mmHg 41%
18:00 +32°C° 0 mm 2 mps 748 mmHg 45%
19:00 +30°C° 0 mm 2 mps 748 mmHg 49%
20:00 +28°C° 0 mm 1 mps 749 mmHg 53%
21:00 +26°C° 0 mm 1 mps 749 mmHg 57%
22:00 +25°C° 0 mm 1 mps 749 mmHg 57%
23:00 +25°C° 0 mm 1 mps 749 mmHg 57%

Day after tomorrow, 6 July, Monday

Time Temperature Precipitation Wind Pressure Humidity
00:00 +24°C° 0 mm 1 mps 748 mmHg 58%
01:00 +24°C° 0 mm 1 mps 748 mmHg 60%
02:00 +23°C° 0 mm 1 mps 748 mmHg 61%
03:00 +20°C° 0 mm 0 mps 748 mmHg 63%
04:00 +21°C° 0 mm 0 mps 748 mmHg 63%
05:00 +23°C° 0 mm 0 mps 749 mmHg 62%
06:00 +24°C° 0 mm 0 mps 749 mmHg 61%
07:00 +25°C° 0 mm 0 mps 749 mmHg 57%
08:00 +26°C° 0 mm 0 mps 749 mmHg 54%
09:00 +30°C° 0 mm 1 mps 749 mmHg 50%
10:00 +29°C° 0 mm 0 mps 749 mmHg 45%
11:00 +31°C° 0 mm 0 mps 749 mmHg 40%
12:00 +32°C° 0 mm 0 mps 749 mmHg 35%
13:00 +34°C° 0 mm 1 mps 749 mmHg 33%
14:00 +35°C° 0 mm 1 mps 749 mmHg 32%
15:00 +36°C° 0 mm 2 mps 748 mmHg 31%
16:00 +34°C° 0 mm 1 mps 748 mmHg 35%
17:00 +34°C° 0 mm 1 mps 748 mmHg 40%
18:00 +33°C° 0 mm 1 mps 748 mmHg 44%
19:00 +31°C° 0 mm 1 mps 749 mmHg 48%
20:00 +29°C° 0 mm 1 mps 749 mmHg 53%
21:00 +26°C° 0 mm 2 mps 749 mmHg 57%
22:00 +26°C° 0 mm 2 mps 749 mmHg 59%
23:00 +25°C° 0 mm 2 mps 749 mmHg 61%

7 July, Tuesday

Time Temperature Precipitation Wind Pressure Humidity
00:00 +24°C° 0 mm 2 mps 749 mmHg 63%
01:00 +24°C° 0 mm 2 mps 749 mmHg 67%
02:00 +23°C° 0 mm 2 mps 749 mmHg 71%
03:00 +22°C° 0 mm 1 mps 749 mmHg 75%
04:00 +23°C° 0 mm 2 mps 749 mmHg 76%
05:00 +24°C° 0 mm 2 mps 749 mmHg 76%
06:00 +25°C° 0 mm 2 mps 749 mmHg 77%
07:00 +27°C° 0 mm 2 mps 750 mmHg 70%
08:00 +29°C° 0 mm 3 mps 750 mmHg 63%
09:00 +31°C° 0 mm 3 mps 750 mmHg 57%
10:00 +33°C° 0 mm 3 mps 750 mmHg 52%
11:00 +34°C° 0 mm 3 mps 750 mmHg 47%
12:00 +35°C° 0 mm 2 mps 750 mmHg 42%
13:00 +35°C° 0 mm 2 mps 749 mmHg 40%
14:00 +36°C° 0 mm 3 mps 749 mmHg 38%
15:00 +36°C° 0 mm 3 mps 749 mmHg 36%
16:00 +35°C° 0 mm 3 mps 749 mmHg 42%
17:00 +34°C° 0 mm 3 mps 749 mmHg 48%
18:00 +33°C° 0 mm 3 mps 749 mmHg 53%
19:00 +30°C° 0 mm 3 mps 749 mmHg 58%
20:00 +28°C° 0 mm 3 mps 749 mmHg 63%
21:00 +26°C° 0 mm 3 mps 749 mmHg 67%
22:00 +25°C° 0 mm 3 mps 749 mmHg 69%
23:00 +25°C° 0 mm 3 mps 749 mmHg 70%

8 July, Wednesday

Time Temperature Precipitation Wind Pressure Humidity
00:00 +24°C° 0 mm 3 mps 749 mmHg 72%
01:00 +24°C° 0 mm 3 mps 749 mmHg 74%
02:00 +22°C° 0 mm 3 mps 749 mmHg 76%
03:00 +22°C° 0 mm 3 mps 749 mmHg 77%
04:00 +22°C° 0 mm 3 mps 749 mmHg 76%
05:00 +24°C° 0 mm 3 mps 749 mmHg 75%
06:00 +24°C° 0 mm 3 mps 749 mmHg 73%
07:00 +26°C° 0 mm 3 mps 749 mmHg 69%
08:00 +28°C° 0 mm 3 mps 749 mmHg 64%
09:00 +29°C° 0 mm 4 mps 749 mmHg 59%
10:00 +30°C° 0 mm 4 mps 749 mmHg 54%
11:00 +32°C° 0 mm 4 mps 748 mmHg 50%
12:00 +33°C° 0 mm 3 mps 748 mmHg 46%
13:00 +33°C° 0 mm 3 mps 748 mmHg 44%
14:00 +34°C° 0 mm 3 mps 748 mmHg 43%
15:00 +34°C° 0 mm 3 mps 747 mmHg 41%
16:00 +34°C° 0 mm 3 mps 747 mmHg 45%
17:00 +33°C° 0 mm 3 mps 747 mmHg 49%
18:00 +33°C° 0 mm 3 mps 747 mmHg 53%
19:00 +30°C° 0 mm 3 mps 747 mmHg 57%
20:00 +28°C° 0 mm 3 mps 747 mmHg 61%
21:00 +26°C° 0 mm 3 mps 747 mmHg 66%
22:00 +25°C° 0 mm 3 mps 747 mmHg 67%
23:00 +25°C° 0 mm 3 mps 747 mmHg 69%

9 July, Thursday

Time Temperature Precipitation Wind Pressure Humidity
00:00 +24°C° 0 mm 3 mps 746 mmHg 71%
01:00 +24°C° 0 mm 3 mps 746 mmHg 70%
02:00 +24°C° 0 mm 2 mps 746 mmHg 69%
03:00 +23°C° 0 mm 2 mps 746 mmHg 69%
04:00 +24°C° 0 mm 2 mps 746 mmHg 69%
05:00 +24°C° 0 mm 2 mps 746 mmHg 69%
06:00 +25°C° 0 mm 2 mps 746 mmHg 69%
07:00 +27°C° 0 mm 2 mps 746 mmHg 64%
08:00 +28°C° 0 mm 3 mps 746 mmHg 59%
09:00 +30°C° 0 mm 3 mps 746 mmHg 54%
10:00 +31°C° 0 mm 3 mps 745 mmHg 49%
11:00 +32°C° 0 mm 2 mps 745 mmHg 45%
12:00 +34°C° 0 mm 2 mps 745 mmHg 41%
13:00 +34°C° 0 mm 2 mps 745 mmHg 42%
14:00 +34°C° 0 mm 2 mps 745 mmHg 43%
15:00 +34°C° 0 mm 2 mps 745 mmHg 44%
16:00 +32°C° 0 mm 2 mps 745 mmHg 48%
17:00 +31°C° 0 mm 2 mps 745 mmHg 53%
18:00 +31°C° 0 mm 2 mps 745 mmHg 57%
19:00 +28°C° 0.8 mm 3 mps 745 mmHg 66%
20:00 +25°C° 0.8 mm 4 mps 745 mmHg 76%
21:00 +22°C° 0.8 mm 5 mps 746 mmHg 85%
22:00 +21°C° 0.1 mm 4 mps 746 mmHg 86%
23:00 +21°C° 0.1 mm 3 mps 746 mmHg 87%
Show more